星链-31760 (STARLINK-31760 )

导读 | 星芒AI

STARLINK-31760 是 SpaceX 星链(Starlink)卫星互联网项目中的第 31760 颗卫星。该卫星属于星链计划的第二批部署(Gen2),旨在为全球用户提供高速、低延迟的互联网服务。它运行在近地轨道,配备先进通信设备,支持宽带数据传输。作为星链星座的一部分,STARLINK-31760 有助于扩大网络覆盖范围,提升连接质量,尤其在偏远地区。其发射和运行体现了 SpaceX 在构建全球卫星互联网基础设施方面的持续努力。

基本信息
目录编号:
59869
目录名称:
STARLINK-31760
国际标识:
2024-098M
轨道中心:
EARTH
卫星名称:
星链-31760
卫星全名:
星链-31760 (STARLINK-31760 )
卫星状态:
在轨 (已飞行575 天)
发射日期:
2024-05-24 UTC
国别 :
美国 (US)
星等 :
--
轨道信息
数据来源 国际轨道数据
星历时间: 2025-12-19T09:44:45+0800
1天前
查看轨道信息
半长轴: 6861.225km
偏心率: 0.0002606
轨道倾角: 43.001°
近地点辐角 288.585°
升交点赤经 13.552°
平近点角 71.472°
近地点: 481.299km
远地点: 484.877km
周期: 94.268分钟
每日圈数: 15.275672
详细信息
固有亮度:
5
最大亮度:
1.5
卫星平台:
Starlink v2.0 mini
覆盖范围:
全球
运营商:
太空探索技术公司
运营商所在国:
美国
制造商(研发单位):
太空探索技术公司
制造商所在国:
美国
使用方式:
暂无
卫星简介
星链(Starlink)计划是由太空探索技术公司(SpaceX)提出的一个巨型低轨卫星互联网星座项目,计划在2019年至2024年间在太空搭建由约1.2万颗卫星组成的“星链”网络,其中1584颗将部署在地球上空550千米处的近地轨道,并从2020年开始工作。该卫星仍在工作。
2D轨道图
3D轨道图
轨道高度分析图
轨道倾角分析图
轨道综合分析图
查看轨道综合分析图